Toluca Jose Maria, Mexico

1:09 AM CDT on April 26, 2017 (GMT -0500)
Lic Adolfo Lopez Mateos International

Weather History for MMTO - March, 2013

Change the Weather History Date:

Saturday, March 16, 2013

  Actual Average Record
Temperature  
Mean Temperature 48 °F -  
Max Temperature 53 °F 71 °F 84 °F (2009)
Min Temperature 42 °F 36 °F 32 °F (2001)
Degree Days  
Heating Degree Days 18    
Moisture  
Dew Point 41 °F    
Average Humidity 77    
Maximum Humidity 93    
Minimum Humidity 62    
Precipitation  
Precipitation 0.25 in - - ()
Sea Level Pressure  
Sea Level Pressure 30.18 in    
Wind  
Wind Speed 9 mph ()    
Max Wind Speed 23 mph    
Max Gust Speed -    
Visibility 5.4 miles    
Events Rain    
Averages and records for this station are not official NWS values.
T = Trace of Precipitation, MM = Missing Value Source: Averaged Metar Reports

Daily Weather History Graph

Daily Weather History Graph

Search for Another Location

Airport or City:

Trip Planner

Search our weather history database for the weather conditions in past years. The results will help you decide how hot, cold, wet, or windy it might be!

Date:

Astronomy

Mar. 16, 2013 Rise Set
Actual Time 6:45 AM CST 6:48 PM CST
Civil Twilight 6:23 AM CST 7:10 PM CST
Nautical Twilight 5:58 AM CST 7:35 PM CST
Astronomical Twilight 5:32 AM CST 8:01 PM CST
Moon 9:56 AM CST (3/16) 11:15 PM CST (3/16)
Length of Visible Light 12h 46m
Length of Day
12h 02m
Waxing Crescent, 23% of the Moon is Illuminated
Mar 16
Waxing Crescent
Mar 19
First Quarter
Mar 27
Full
Apr 2
Last Quarter
Apr 10
New

Hourly Weather History & Observations

Time (CST) Temp. Windchill Dew Point Humidity Pressure Visibility Wind Dir Wind Speed Gust Speed Precip Events Conditions
12:45 AM 46.4 °F 42.9 °F 41.0 °F 81% 30.30 in 7.0 mi SSE 6.9 mph - N/A   Mostly Cloudy
1:45 AM 44.6 °F 39.7 °F 42.8 °F 93% 30.30 in 7.0 mi SSE 9.2 mph - N/A   Scattered Clouds
2:45 AM 44.6 °F 39.2 °F 41.0 °F 87% 29.96 in 5.0 mi SSE 10.4 mph - N/A   Mostly Cloudy
3:45 AM 44.6 °F 43.1 °F 41.0 °F 87% 30.26 in 5.0 mi SE 3.5 mph - N/A   Mostly Cloudy
4:45 AM 44.6 °F - 41.0 °F 87% 30.27 in 5.0 mi Calm Calm - N/A   Mostly Cloudy
5:45 AM 44.6 °F 40.2 °F 39.2 °F 81% 29.94 in 5.0 mi SSE 8.1 mph - N/A   Mostly Cloudy
6:45 AM 42.8 °F 41.1 °F 39.2 °F 87% 30.28 in 3.0 mi South 3.5 mph - N/A   Mostly Cloudy
7:45 AM 46.4 °F 43.5 °F 41.0 °F 81% 30.30 in 3.0 mi SE 5.8 mph - N/A   Mostly Cloudy
8:53 AM 46.4 °F 41.9 °F 41.0 °F 81% 29.94 in 5.0 mi SSE 9.2 mph - N/A   Mostly Cloudy
9:46 AM 48.2 °F - 42.8 °F 82% 30.35 in 5.0 mi South 13.8 mph - N/A   Mostly Cloudy
10:45 AM 50.0 °F - 42.8 °F 76% 30.32 in 5.0 mi South 11.5 mph - N/A   Overcast
11:46 AM 53.6 °F - 41.0 °F 62% 29.91 in 5.0 mi South 17.3 mph - N/A   Overcast
12:47 PM 51.8 °F - 41.0 °F 67% 30.30 in 5.0 mi SSE 17.3 mph - N/A   Overcast
1:47 PM 51.8 °F - 39.2 °F 62% 30.28 in 5.0 mi SSE 16.1 mph - N/A   Overcast
2:25 PM 51.8 °F - 42.8 °F 71% 30.27 in 5.0 mi SSE 17.3 mph - N/A Rain Light Rain
2:45 PM 50.0 °F - 42.8 °F 76% 29.86 in 5.0 mi SE 18.4 mph - N/A   Overcast
3:44 PM 51.8 °F - 41.0 °F 67% 30.24 in 5.0 mi SSE 18.4 mph - N/A   Overcast
4:44 PM 51.8 °F - 41.0 °F 67% 30.24 in 6.0 mi South 13.8 mph - N/A   Mostly Cloudy
5:19 PM 51.8 °F - 41.0 °F 67% 30.24 in 7.0 mi South 23.0 mph - N/A   Mostly Cloudy
5:46 PM 51.8 °F - 41.0 °F 67% 29.85 in 6.0 mi SSE 19.6 mph - N/A   Mostly Cloudy
6:45 PM 46.4 °F 40.4 °F 39.2 °F 76% 30.28 in 6.0 mi SSE 13.8 mph - N/A   Mostly Cloudy
7:45 PM 44.6 °F 38.8 °F 39.2 °F 81% 30.29 in 7.0 mi SSE 11.5 mph - N/A   Mostly Cloudy
8:42 PM 44.6 °F 38.1 °F 39.2 °F 81% 29.94 in 6.0 mi SSE 13.8 mph - N/A   Mostly Cloudy
9:43 PM 44.6 °F 40.7 °F 39.2 °F 81% 30.34 in 6.0 mi South 6.9 mph - N/A   Mostly Cloudy
10:44 PM 44.6 °F 43.1 °F 39.2 °F 81% 30.36 in 6.0 mi NNW 3.5 mph - N/A   Overcast
11:43 PM 42.8 °F 39.3 °F 37.4 °F 81% 30.01 in 5.0 mi NW 5.8 mph - N/A Rain Light Rain